StationID,Date,MaxTemp,MinTemp,Precipitation,Snowfall,SnowDepth
"CA001012570","1958-07-01",,,0.00,0.00,
"CA001012570","1958-07-02",,,0.00,0.00,
"CA001012570","1958-07-03",80.96,,0.00,0.00,
"CA001012570","1958-07-04",89.06,53.06,0.00,0.00,
"CA001012570","1958-07-05",87.98,55.04,0.00,0.00,
"CA001012570","1958-07-06",89.96,55.04,0.00,0.00,
"CA001012570","1958-07-07",80.96,55.94,0.00,0.00,
"CA001012570","1958-07-08",73.04,51.98,0.00,0.00,
"CA001012570","1958-07-09",78.98,51.08,0.00,0.00,
"CA001012570","1958-07-10",84.02,53.96,0.00,0.00,
"CA001012570","1958-07-11",80.96,57.02,0.00,0.00,
"CA001012570","1958-07-12",73.04,53.06,0.00,0.00,
"CA001012570","1958-07-13",75.92,48.92,0.00,0.00,
"CA001012570","1958-07-14",86.00,48.02,0.00,0.00,
"CA001012570","1958-07-15",91.94,48.92,0.00,0.00,
"CA001012570","1958-07-16",93.02,50.00,0.00,0.00,
"CA001012570","1958-07-17",86.00,53.06,0.00,0.00,
"CA001012570","1958-07-18",78.08,53.06,0.00,0.00,
"CA001012570","1958-07-19",75.02,51.08,0.00,0.00,
"CA001012570","1958-07-20",78.08,53.06,0.00,0.00,
"CA001012570","1958-07-21",80.96,53.06,0.00,0.00,
"CA001012570","1958-07-22",78.08,53.96,0.00,0.00,
"CA001012570","1958-07-23",89.96,48.92,0.00,0.00,
"CA001012570","1958-07-24",87.08,46.94,0.00,0.00,
"CA001012570","1958-07-25",87.08,53.06,0.00,0.00,
"CA001012570","1958-07-26",91.94,55.04,0.00,0.00,
"CA001012570","1958-07-27",98.96,55.94,0.00,0.00,
"CA001012570","1958-07-28",93.02,57.92,0.00,0.00,
"CA001012570","1958-07-29",77.00,60.98,0.00,0.00,
"CA001012570","1958-07-30",80.06,57.92,0.00,0.00,
"CA001012570","1958-07-31",78.98,57.92,0.00,0.00,
"CA001012570","1958-08-01",78.08,50.00,0.00,0.00,
"CA001012570","1958-08-02",80.96,48.02,3.00,0.00,
"CA001012570","1958-08-03",75.02,55.94,0.00,0.00,
"CA001012570","1958-08-04",75.02,51.98,0.00,0.00,
"CA001012570","1958-08-05",80.06,46.94,0.00,0.00,
"CA001012570","1958-08-06",73.04,57.02,8.00,0.00,
"CA001012570","1958-08-07",73.04,57.02,0.00,0.00,
"CA001012570","1958-08-08",75.02,50.00,0.00,0.00,
"CA001012570","1958-08-09",78.08,46.04,0.00,0.00,
"CA001012570","1958-08-10",84.02,46.94,0.00,0.00,
"CA001012570","1958-08-11",84.92,46.04,0.00,0.00,
"CA001012570","1958-08-12",80.06,50.00,0.00,0.00,
"CA001012570","1958-08-13",80.06,57.92,0.00,0.00,
"CA001012570","1958-08-14",84.02,50.00,0.00,0.00,
"CA001012570","1958-08-15",82.04,51.08,0.00,0.00,
"CA001012570","1958-08-16",78.08,50.00,0.00,0.00,
"CA001012570","1958-08-17",78.08,48.02,0.00,0.00,
"CA001012570","1958-08-18",75.02,48.02,0.00,0.00,
"CA001012570","1958-08-19",82.04,46.04,0.00,0.00,
"CA001012570","1958-08-20",87.98,46.94,0.00,0.00,
"CA001012570","1958-08-21",87.08,46.94,0.00,0.00,
"CA001012570","1958-08-22",82.94,50.00,0.00,0.00,
"CA001012570","1958-08-23",84.92,51.08,0.00,0.00,
"CA001012570","1958-08-24",87.08,51.08,0.00,0.00,
"CA001012570","1958-08-25",82.94,51.98,0.00,0.00,
"CA001012570","1958-08-26",73.04,51.98,66.00,0.00,
"CA001012570","1958-08-27",62.96,55.04,18.00,0.00,
"CA001012570","1958-08-28",64.04,48.02,38.00,0.00,
"CA001012570","1958-08-29",75.02,50.00,0.00,0.00,
"CA001012570","1958-08-30",69.08,55.04,0.00,0.00,
"CA001012570","1958-08-31",71.96,55.94,61.00,0.00,
"CA001012570","1958-09-01",69.98,48.02,20.00,0.00,
"CA001012570","1958-09-02",64.04,44.96,0.00,0.00,
"CA001012570","1958-09-03",69.08,37.94,0.00,0.00,
"CA001012570","1958-09-04",71.96,39.02,0.00,0.00,
"CA001012570","1958-09-05",75.92,48.92,0.00,0.00,
"CA001012570","1958-09-06",80.06,46.04,0.00,0.00,
"CA001012570","1958-09-07",84.02,42.98,0.00,0.00,
"CA001012570","1958-09-08",71.96,51.08,3.00,0.00,
"CA001012570","1958-09-09",73.04,55.94,0.00,0.00,
"CA001012570","1958-09-10",73.04,48.92,18.00,0.00,
"CA001012570","1958-09-11",71.96,46.04,0.00,0.00,
"CA001012570","1958-09-12",71.96,44.06,0.00,0.00,
"CA001012570","1958-09-13",75.02,53.96,0.00,0.00,
"CA001012570","1958-09-14",68.00,55.04,0.00,0.00,
"CA001012570","1958-09-15",62.96,48.02,48.00,0.00,
"CA001012570","1958-09-16",69.08,55.94,25.00,0.00,
"CA001012570","1958-09-17",71.06,48.92,0.00,0.00,
"CA001012570","1958-09-18",62.06,51.98,66.00,0.00,
"CA001012570","1958-09-19",68.00,48.02,0.00,0.00,
"CA001012570","1958-09-20",60.08,42.08,97.00,0.00,
"CA001012570","1958-09-21",64.04,46.04,0.00,0.00,
"CA001012570","1958-09-22",60.08,42.08,3.00,0.00,
"CA001012570","1958-09-23",60.08,30.92,0.00,0.00,
"CA001012570","1958-09-24",51.08,37.94,109.00,0.00,
"CA001012570","1958-09-25",64.94,37.94,0.00,0.00,
"CA001012570","1958-09-26",60.08,51.98,0.00,0.00,
"CA001012570","1958-09-27",68.00,42.08,0.00,0.00,
"CA001012570","1958-09-28",68.00,46.04,0.00,0.00,
"CA001012570","1958-09-29",66.92,44.06,0.00,0.00,
"CA001012570","1958-09-30",69.08,35.96,0.00,0.00,
"CA001012570","1958-10-01",69.08,39.02,0.00,0.00,
"CA001012570","1958-10-02",71.06,41.00,0.00,0.00,
"CA001012570","1958-10-03",71.06,37.94,0.00,0.00,
"CA001012570","1958-10-04",68.00,42.08,0.00,0.00,
"CA001012570","1958-10-05",62.96,37.94,0.00,0.00,
"CA001012570","1958-10-06",60.98,41.00,5.00,0.00,
"CA001012570","1958-10-07",59.00,48.02,8.00,0.00,
"CA001012570","1958-10-08",60.98,39.02,58.00,0.00,
"CA001012570","1958-10-09",48.02,41.00,122.00,0.00,
"CA001012570","1958-10-10",55.94,44.96,0.00,0.00,
"CA001012570","1958-10-11",60.08,48.02,28.00,0.00,
"CA001012570","1958-10-12",59.00,53.06,38.00,0.00,
"CA001012570","1958-10-13",60.08,48.92,5.00,0.00,
"CA001012570","1958-10-14",60.98,48.02,0.00,0.00,
"CA001012570","1958-10-15",60.98,42.98,0.00,0.00,
"CA001012570","1958-10-16",60.98,41.00,0.00,0.00,
"CA001012570","1958-10-17",55.04,33.98,124.00,0.00,
"CA001012570","1958-10-18",57.92,35.06,56.00,0.00,
"CA001012570","1958-10-19",60.98,42.98,46.00,0.00,
"CA001012570","1958-10-20",57.02,33.08,0.00,0.00,
"CA001012570","1958-10-21",57.92,30.92,0.00,0.00,
"CA001012570","1958-10-22",57.92,35.96,0.00,0.00,
"CA001012570","1958-10-23",55.04,30.92,0.00,0.00,
"CA001012570","1958-10-24",55.04,28.94,0.00,0.00,
"CA001012570","1958-10-25",62.06,32.00,0.00,0.00,
"CA001012570","1958-10-26",60.08,33.98,0.00,0.00,
"CA001012570","1958-10-27",60.98,28.94,0.00,0.00,
"CA001012570","1958-10-28",60.98,28.94,0.00,0.00,
"CA001012570","1958-10-29",62.96,30.02,0.00,0.00,
"CA001012570","1958-10-30",62.06,30.02,86.00,0.00,
"CA001012570","1958-10-31",57.02,46.94,28.00,0.00,
"CA001012570","1958-11-01",53.96,39.92,15.00,0.00,
"CA001012570","1958-11-02",55.04,37.04,0.00,0.00,
"CA001012570","1958-11-03",48.92,41.00,274.00,0.00,
"CA001012570","1958-11-04",48.92,30.92,8.00,0.00,
"CA001012570","1958-11-05",53.06,37.04,56.00,0.00,
"CA001012570","1958-11-06",59.00,42.98,3.00,0.00,
"CA001012570","1958-11-07",48.02,28.94,66.00,0.00,
"CA001012570","1958-11-08",55.94,35.96,10.00,0.00,
"CA001012570","1958-11-09",51.98,39.02,0.00,0.00,
"CA001012570","1958-11-10",48.02,30.92,99.00,0.00,
"CA001012570","1958-11-11",50.00,37.94,99.00,0.00,
"CA001012570","1958-11-12",53.06,35.06,0.00,0.00,
"CA001012570","1958-11-13",44.96,30.02,5.00,0.00,
"CA001012570","1958-11-14",46.04,32.00,0.00,0.00,
"CA001012570","1958-11-15",42.08,24.98,0.00,0.00,
"CA001012570","1958-11-16",37.94,17.96,0.00,0.00,
"CA001012570","1958-11-17",39.02,28.04,201.00,0.00,
"CA001012570","1958-11-18",39.02,32.00,157.00,0.00,
"CA001012570","1958-11-19",48.02,28.94,0.00,0.00,
"CA001012570","1958-11-20",60.08,35.06,0.00,0.00,
"CA001012570","1958-11-21",50.00,33.98,150.00,0.00,
"CA001012570","1958-11-22",46.94,39.92,10.00,0.00,
"CA001012570","1958-11-23",44.06,32.00,79.00,0.00,
"CA001012570","1958-11-24",46.04,32.00,0.00,0.00,
"CA001012570","1958-11-25",42.08,21.02,0.00,0.00,
"CA001012570","1958-11-26",42.08,19.04,0.00,0.00,
"CA001012570","1958-11-27",41.00,17.96,0.00,0.00,
"CA001012570","1958-11-28",39.02,19.94,0.00,0.00,
"CA001012570","1958-11-29",53.06,24.98,43.00,0.00,
"CA001012570","1958-11-30",51.98,39.02,353.00,0.00,
"CA001012570","1958-12-01",59.00,44.06,107.00,0.00,
"CA001012570","1958-12-02",60.08,48.02,201.00,0.00,
"CA001012570","1958-12-03",51.08,44.06,0.00,0.00,
"CA001012570","1958-12-04",39.92,26.06,0.00,0.00,
"CA001012570","1958-12-05",37.94,24.08,76.00,76.00,
"CA001012570","1958-12-06",35.96,32.00,102.00,89.00,
"CA001012570","1958-12-07",35.06,30.92,140.00,38.00,
"CA001012570","1958-12-08",35.06,30.92,15.00,0.00,
"CA001012570","1958-12-09",35.96,32.00,15.00,0.00,
"CA001012570","1958-12-10",37.94,33.08,58.00,0.00,
"CA001012570","1958-12-11",46.04,35.06,25.00,0.00,
"CA001012570","1958-12-12",46.04,30.02,0.00,0.00,
"CA001012570","1958-12-13",42.98,28.04,0.00,0.00,
"CA001012570","1958-12-14",35.06,24.98,8.00,0.00,
"CA001012570","1958-12-15",55.04,28.94,18.00,0.00,
"CA001012570","1958-12-16",48.92,37.04,8.00,0.00,
"CA001012570","1958-12-17",48.92,39.92,191.00,0.00,
"CA001012570","1958-12-18",48.02,33.98,0.00,0.00,
"CA001012570","1958-12-19",42.98,33.98,74.00,0.00,
"CA001012570","1958-12-20",50.00,39.02,97.00,0.00,
"CA001012570","1958-12-21",50.00,42.98,28.00,0.00,
"CA001012570","1958-12-22",48.92,32.00,0.00,0.00,
"CA001012570","1958-12-23",44.96,28.94,94.00,0.00,
"CA001012570","1958-12-24",44.96,37.04,119.00,0.00,
"CA001012570","1958-12-25",48.92,39.02,147.00,0.00,
"CA001012570","1958-12-26",48.02,39.02,89.00,0.00,
"CA001012570","1958-12-27",46.94,39.92,5.00,0.00,
"CA001012570","1958-12-28",46.94,33.98,109.00,0.00,
"CA001012570","1958-12-29",46.04,41.00,91.00,0.00,
"CA001012570","1958-12-30",53.96,42.08,3.00,0.00,
"CA001012570","1958-12-31",57.92,44.06,64.00,0.00,
"CA001012570","1959-01-01",44.06,26.06,13.00,13.00,
"CA001012570","1959-01-02",24.08,19.04,0.00,0.00,
"CA001012570","1959-01-03",24.98,6.08,0.00,0.00,
"CA001012570","1959-01-04",26.06,8.96,97.00,97.00,
"CA001012570","1959-01-05",37.94,23.00,79.00,13.00,
"CA001012570","1959-01-06",44.96,28.94,102.00,0.00,
"CA001012570","1959-01-07",46.94,28.94,127.00,0.00,
"CA001012570","1959-01-08",53.06,37.94,10.00,0.00,
"CA001012570","1959-01-09",53.06,33.98,81.00,0.00,
"CA001012570","1959-01-10",51.08,35.06,23.00,0.00,
"CA001012570","1959-01-11",48.92,37.04,43.00,0.00,
"CA001012570","1959-01-12",50.00,41.00,104.00,0.00,
"CA001012570","1959-01-13",48.02,32.00,0.00,0.00,
"CA001012570","1959-01-14",41.00,28.04,64.00,0.00,
"CA001012570","1959-01-15",39.92,32.00,155.00,0.00,
"CA001012570","1959-01-16",44.06,33.98,53.00,0.00,
"CA001012570","1959-01-17",48.02,39.02,58.00,0.00,
"CA001012570","1959-01-18",51.08,39.02,0.00,0.00,
"CA001012570","1959-01-19",50.00,33.08,0.00,0.00,
"CA001012570","1959-01-20",37.94,26.06,10.00,10.00,
"CA001012570","1959-01-21",33.98,28.04,119.00,74.00,
"CA001012570","1959-01-22",37.94,32.00,241.00,0.00,
"CA001012570","1959-01-23",46.04,33.98,244.00,0.00,
"CA001012570","1959-01-24",48.02,33.98,5.00,0.00,
"CA001012570","1959-01-25",48.92,32.00,0.00,0.00,
"CA001012570","1959-01-26",46.94,37.04,58.00,0.00,
"CA001012570","1959-01-27",51.98,37.04,0.00,0.00,
"CA001012570","1959-01-28",48.92,30.92,0.00,0.00,
"CA001012570","1959-01-29",44.06,30.02,0.00,0.00,
"CA001012570","1959-01-30",42.98,26.96,0.00,0.00,
"CA001012570","1959-01-31",42.08,30.92,0.00,0.00,
"CA001012570","1959-02-01",46.94,24.98,0.00,0.00,
"CA001012570","1959-02-02",46.04,28.04,0.00,0.00,
"CA001012570","1959-02-03",51.08,37.04,0.00,0.00,
"CA001012570","1959-02-04",48.02,26.96,28.00,0.00,
"CA001012570","1959-02-05",48.02,33.98,3.00,0.00,
"CA001012570","1959-02-06",46.04,30.92,66.00,0.00,
"CA001012570","1959-02-07",39.02,30.92,43.00,15.00,
"CA001012570","1959-02-08",37.04,26.06,3.00,3.00,
"CA001012570","1959-02-09",37.04,26.06,0.00,0.00,
"CA001012570","1959-02-10",37.04,30.92,0.00,0.00,
"CA001012570","1959-02-11",42.98,26.06,0.00,0.00,
"CA001012570","1959-02-12",42.08,24.08,51.00,0.00,
"CA001012570","1959-02-13",44.06,35.96,20.00,0.00,
"CA001012570","1959-02-14",46.04,28.94,0.00,0.00,
"CA001012570","1959-02-15",42.98,26.96,0.00,0.00,
"CA001012570","1959-02-16",46.94,30.02,74.00,0.00,
"CA001012570","1959-02-17",46.04,35.06,0.00,0.00,
"CA001012570","1959-02-18",44.06,33.08,3.00,0.00,
"CA001012570","1959-02-19",39.92,35.96,46.00,0.00,
"CA001012570","1959-02-20",51.08,37.94,0.00,0.00,
"CA001012570","1959-02-21",53.96,26.06,10.00,0.00,
"CA001012570","1959-02-22",44.06,30.92,13.00,0.00,
"CA001012570","1959-02-23",50.00,41.00,0.00,0.00,
"CA001012570","1959-02-24",46.94,39.92,20.00,0.00,
"CA001012570","1959-02-25",53.96,42.98,0.00,0.00,
"CA001012570","1959-02-26",46.04,33.08,3.00,0.00,
"CA001012570","1959-02-27",46.04,39.92,91.00,0.00,
"CA001012570","1959-02-28",57.92,44.06,13.00,0.00,
"CA001012570","1959-03-01",53.06,33.98,0.00,0.00,
"CA001012570","1959-03-02",42.08,30.02,5.00,0.00,
"CA001012570","1959-03-03",50.00,30.02,0.00,0.00,
"CA001012570","1959-03-04",50.00,28.04,0.00,0.00,
"CA001012570","1959-03-05",50.00,32.00,0.00,0.00,
"CA001012570","1959-03-06",51.08,37.04,8.00,0.00,
"CA001012570","1959-03-07",48.92,30.92,81.00,0.00,
"CA001012570","1959-03-08",51.98,33.08,20.00,0.00,
"CA001012570","1959-03-09",51.08,35.96,13.00,0.00,
"CA001012570","1959-03-10",48.02,33.08,0.00,0.00,
"CA001012570","1959-03-11",46.94,39.02,30.00,0.00,
"CA001012570","1959-03-12",48.92,28.94,8.00,8.00,
"CA001012570","1959-03-13",42.08,32.00,5.00,0.00,
"CA001012570","1959-03-14",44.96,28.94,8.00,0.00,
"CA001012570","1959-03-15",48.02,39.02,0.00,0.00,
"CA001012570","1959-03-16",55.94,37.04,3.00,0.00,
"CA001012570","1959-03-17",55.04,35.06,18.00,0.00,
"CA001012570","1959-03-18",51.08,35.06,71.00,0.00,
"CA001012570","1959-03-19",48.02,30.02,0.00,0.00,
"CA001012570","1959-03-20",46.04,30.02,137.00,0.00,
"CA001012570","1959-03-21",51.98,39.02,5.00,0.00,
"CA001012570","1959-03-22",46.94,26.06,0.00,0.00,
"CA001012570","1959-03-23",51.08,28.04,0.00,0.00,
"CA001012570","1959-03-24",51.98,30.92,3.00,0.00,
"CA001012570","1959-03-25",48.92,41.00,43.00,0.00,
"CA001012570","1959-03-26",55.04,39.02,0.00,0.00,
"CA001012570","1959-03-27",46.04,32.00,150.00,0.00,
"CA001012570","1959-03-28",51.98,35.06,5.00,0.00,
"CA001012570","1959-03-29",46.94,33.08,163.00,0.00,
"CA001012570","1959-03-30",50.00,37.94,99.00,0.00,
"CA001012570","1959-03-31",51.98,42.08,99.00,0.00,
"CA001012570","1959-04-01",55.04,42.08,8.00,0.00,
"CA001012570","1959-04-02",53.06,32.00,0.00,0.00,
"CA001012570","1959-04-03",50.00,28.94,0.00,0.00,
"CA001012570","1959-04-04",51.98,33.98,23.00,0.00,
"CA001012570","1959-04-05",51.98,42.08,8.00,0.00,
"CA001012570","1959-04-06",53.96,35.06,0.00,0.00,
"CA001012570","1959-04-07",60.08,28.94,0.00,0.00,
"CA001012570","1959-04-08",66.02,28.94,0.00,0.00,
"CA001012570","1959-04-09",69.98,30.02,0.00,0.00,
"CA001012570","1959-04-10",66.02,30.92,0.00,0.00,
"CA001012570","1959-04-11",59.00,41.00,0.00,0.00,
"CA001012570","1959-04-12",55.94,35.96,0.00,0.00,
"CA001012570","1959-04-13",53.06,30.92,0.00,0.00,
"CA001012570","1959-04-14",51.98,42.08,74.00,0.00,
"CA001012570","1959-04-15",53.06,30.02,0.00,0.00,
"CA001012570","1959-04-16",53.06,,30.00,0.00,
"CA001012570","1959-04-17",53.96,30.92,0.00,0.00,
"CA001012570","1959-04-18",59.00,39.02,0.00,0.00,
"CA001012570","1959-04-19",62.06,32.00,0.00,0.00,
"CA001012570","1959-04-20",68.00,33.98,0.00,0.00,
"CA001012570","1959-04-21",69.08,41.00,0.00,0.00,
"CA001012570","1959-04-22",62.06,39.02,0.00,0.00,
"CA001012570","1959-04-23",59.00,37.94,0.00,0.00,
"CA001012570","1959-04-24",59.00,30.92,0.00,0.00,
"CA001012570","1959-04-25",60.08,30.02,0.00,0.00,
"CA001012570","1959-04-26",55.04,42.08,13.00,0.00,
"CA001012570","1959-04-27",55.04,39.02,46.00,0.00,
"CA001012570","1959-04-28",64.04,46.04,56.00,0.00,
"CA001012570","1959-04-29",55.04,51.08,272.00,0.00,
"CA001012570","1959-04-30",55.04,42.98,15.00,0.00,
"CA001012570","1959-05-01",55.04,33.08,0.00,0.00,
"CA001012570","1959-05-02",55.04,35.06,0.00,0.00,
"CA001012570","1959-05-03",51.98,33.08,56.00,0.00,
"CA001012570","1959-05-04",53.96,32.00,28.00,0.00,
"CA001012570","1959-05-05",60.08,30.92,0.00,0.00,
"CA001012570","1959-05-06",62.96,33.08,0.00,0.00,
"CA001012570","1959-05-07",66.92,35.06,15.00,0.00,
"CA001012570","1959-05-08",66.02,46.04,13.00,0.00,
"CA001012570","1959-05-09",60.98,42.98,15.00,0.00,
"CA001012570","1959-05-10",55.94,41.00,13.00,0.00,
"CA001012570","1959-05-11",60.08,35.06,0.00,0.00,
"CA001012570","1959-05-12",75.02,33.98,0.00,0.00,
"CA001012570","1959-05-13",84.02,41.00,3.00,0.00,
"CA001012570","1959-05-14",71.96,53.06,99.00,0.00,
"CA001012570","1959-05-15",53.96,48.02,33.00,0.00,
"CA001012570","1959-05-16",55.94,44.06,8.00,0.00,
"CA001012570","1959-05-17",57.92,46.94,0.00,0.00,
"CA001012570","1959-05-18",62.06,42.08,0.00,0.00,
"CA001012570","1959-05-19",62.06,46.04,0.00,0.00,
"CA001012570","1959-05-20",64.94,39.92,0.00,0.00,
"CA001012570","1959-05-21",69.98,39.92,0.00,0.00,
"CA001012570","1959-05-22",78.08,41.00,0.00,0.00,
"CA001012570","1959-05-23",78.08,42.08,0.00,0.00,
"CA001012570","1959-05-24",66.02,44.06,0.00,0.00,
"CA001012570","1959-05-25",59.00,50.00,20.00,0.00,
"CA001012570","1959-05-26",57.92,44.96,61.00,0.00,
"CA001012570","1959-05-27",62.96,42.98,0.00,0.00,
"CA001012570","1959-05-28",64.04,44.06,10.00,0.00,
"CA001012570","1959-05-29",64.94,46.94,0.00,0.00,
"CA001012570","1959-05-30",69.08,39.92,0.00,0.00,
"CA001012570","1959-05-31",75.02,42.08,0.00,0.00,
"CA001012570","1959-06-01",78.08,42.98,0.00,0.00,
"CA001012570","1959-06-02",66.02,53.06,33.00,0.00,
"CA001012570","1959-06-03",66.02,44.96,0.00,0.00,
"CA001012570","1959-06-04",60.08,51.98,84.00,0.00,
"CA001012570","1959-06-05",64.94,39.02,0.00,0.00,
"CA001012570","1959-06-06",66.92,41.00,0.00,0.00,
"CA001012570","1959-06-07",62.06,44.96,38.00,0.00,
"CA001012570","1959-06-08",60.98,48.92,244.00,0.00,
"CA001012570","1959-06-09",60.08,46.94,53.00,0.00,
"CA001012570","1959-06-10",62.06,41.00,23.00,0.00,
"CA001012570","1959-06-11",62.06,51.98,15.00,0.00,
"CA001012570","1959-06-12",66.02,51.98,10.00,0.00,
"CA001012570","1959-06-13",68.00,42.08,0.00,0.00,
"CA001012570","1959-06-14",66.02,48.02,0.00,0.00,
"CA001012570","1959-06-15",69.08,41.00,0.00,0.00,
"CA001012570","1959-06-16",68.00,41.00,0.00,0.00,
"CA001012570","1959-06-17",69.98,48.02,0.00,0.00,
"CA001012570","1959-06-18",78.98,46.04,0.00,0.00,
"CA001012570","1959-06-19",82.04,51.98,0.00,0.00,
"CA001012570","1959-06-20",78.08,59.00,0.00,0.00,
"CA001012570","1959-06-21",73.04,59.00,0.00,0.00,
"CA001012570","1959-06-22",71.96,48.92,0.00,0.00,
"CA001012570","1959-06-23",69.08,53.96,0.00,0.00,
"CA001012570","1959-06-24",69.98,53.96,5.00,0.00,
"CA001012570","1959-06-25",69.98,48.92,0.00,0.00,
"CA001012570","1959-06-26",66.02,50.00,3.00,0.00,
"CA001012570","1959-06-27",71.06,48.92,0.00,0.00,
"CA001012570","1959-06-28",73.94,42.98,0.00,0.00,
"CA001012570","1959-06-29",73.04,48.02,0.00,0.00,
"CA001012570","1959-06-30",77.00,48.92,0.00,0.00,
"CA001012570","1959-07-01",73.04,50.00,5.00,0.00,
"CA001012570","1959-07-02",69.08,48.92,3.00,0.00,
"CA001012570","1959-07-03",66.02,48.02,41.00,0.00,
"CA001012570","1959-07-04",66.92,50.00,23.00,0.00,
"CA001012570","1959-07-05",64.94,51.98,5.00,0.00,
"CA001012570","1959-07-06",62.96,44.96,3.00,0.00,
"CA001012570","1959-07-07",69.98,46.04,0.00,0.00,
"CA001012570","1959-07-08",75.02,48.02,0.00,0.00,
"CA001012570","1959-07-09",84.92,44.06,0.00,0.00,
"CA001012570","1959-07-10",82.94,48.02,0.00,0.00,
"CA001012570","1959-07-11",80.96,50.00,0.00,0.00,
"CA001012570","1959-07-12",78.98,57.02,0.00,0.00,
"CA001012570","1959-07-13",73.04,55.04,0.00,0.00,
"CA001012570","1959-07-14",75.92,48.92,0.00,0.00,
"CA001012570","1959-07-15",78.08,48.92,0.00,0.00,
"CA001012570","1959-07-16",86.00,46.94,0.00,0.00,
"CA001012570","1959-07-17",89.06,48.02,0.00,0.00,
"CA001012570","1959-07-18",89.06,51.08,0.00,0.00,
"CA001012570","1959-07-19",87.98,51.08,0.00,0.00,
"CA001012570","1959-07-20",84.92,53.06,0.00,0.00,
"CA001012570","1959-07-21",87.98,53.96,0.00,0.00,
"CA001012570","1959-07-22",87.08,55.04,0.00,0.00,
"CA001012570","1959-07-23",73.04,55.94,3.00,0.00,
"CA001012570","1959-07-24",77.00,60.98,0.00,0.00,
"CA001012570","1959-07-25",75.92,55.94,0.00,0.00,
"CA001012570","1959-07-26",73.04,44.96,0.00,0.00,
"CA001012570","1959-07-27",66.02,44.06,28.00,0.00,
"CA001012570","1959-07-28",68.00,50.00,0.00,0.00,
"CA001012570","1959-07-29",78.08,42.08,0.00,0.00,
"CA001012570","1959-07-30",89.06,42.08,0.00,0.00,
"CA001012570","1959-07-31",91.94,48.92,0.00,0.00,
"CA001012570","1959-08-01",75.92,50.00,0.00,0.00,
"CA001012570","1959-08-02",71.96,48.02,0.00,0.00,
"CA001012570","1959-08-03",69.98,50.00,0.00,0.00,
"CA001012570","1959-08-04",73.94,53.96,0.00,0.00,
"CA001012570","1959-08-05",75.02,44.96,0.00,0.00,
"CA001012570","1959-08-06",80.06,44.96,0.00,0.00,
"CA001012570","1959-08-07",78.08,48.02,0.00,0.00,
"CA001012570","1959-08-08",75.92,46.94,0.00,0.00,
"CA001012570","1959-08-09",77.00,44.06,0.00,0.00,
"CA001012570","1959-08-10",75.92,46.04,0.00,0.00,
"CA001012570","1959-08-11",71.06,46.94,0.00,0.00,
"CA001012570","1959-08-12",75.02,51.98,0.00,0.00,
"CA001012570","1959-08-13",77.00,48.02,0.00,0.00,
"CA001012570","1959-08-14",66.02,50.00,8.00,0.00,
"CA001012570","1959-08-15",71.96,53.96,0.00,0.00,
"CA001012570","1959-08-16",71.96,55.94,0.00,0.00,
"CA001012570","1959-08-17",69.98,53.96,23.00,0.00,
"CA001012570","1959-08-18",69.98,42.98,41.00,0.00,
"CA001012570","1959-08-19",78.08,42.98,0.00,0.00,
"CA001012570","1959-08-20",80.06,42.98,0.00,0.00,
"CA001012570","1959-08-21",66.92,55.04,0.00,0.00,
"CA001012570","1959-08-22",75.02,51.98,0.00,0.00,
"CA001012570","1959-08-23",66.92,48.02,5.00,0.00,
"CA001012570","1959-08-24",75.92,39.92,0.00,0.00,
"CA001012570","1959-08-25",73.04,41.00,0.00,0.00,
"CA001012570","1959-08-26",71.96,53.06,0.00,0.00,
"CA001012570","1959-08-27",73.04,53.06,3.00,0.00,
"CA001012570","1959-08-28",66.02,48.02,0.00,0.00,
"CA001012570","1959-08-29",69.08,39.92,0.00,0.00,
"CA001012570","1959-08-30",69.08,42.98,107.00,0.00,
"CA001012570","1959-08-31",66.02,51.08,0.00,0.00,
"CA001012570","1959-09-01",69.98,42.98,0.00,0.00,
"CA001012570","1959-09-02",73.94,39.92,0.00,0.00,
"CA001012570","1959-09-03",66.92,53.96,30.00,0.00,
"CA001012570","1959-09-04",66.02,50.00,58.00,0.00,
"CA001012570","1959-09-05",60.98,51.08,64.00,0.00,
"CA001012570","1959-09-06",68.00,48.92,0.00,0.00,
"CA001012570","1959-09-07",62.96,50.00,107.00,0.00,
"CA001012570","1959-09-08",62.96,37.04,0.00,0.00,
"CA001012570","1959-09-09",69.08,35.96,0.00,0.00,
"CA001012570","1959-09-10",73.04,37.04,0.00,0.00,
"CA001012570","1959-09-11",66.02,42.08,0.00,0.00,
"CA001012570","1959-09-12",73.94,46.04,0.00,0.00,
"CA001012570","1959-09-13",75.92,46.94,25.00,0.00,
"CA001012570","1959-09-14",68.00,46.94,5.00,0.00,
"CA001012570","1959-09-15",66.92,53.96,71.00,0.00,
"CA001012570","1959-09-16",60.08,50.00,5.00,0.00,
"CA001012570","1959-09-17",66.92,39.02,8.00,0.00,
"CA001012570","1959-09-18",66.92,48.02,145.00,0.00,
"CA001012570","1959-09-19",69.98,55.04,137.00,0.00,
"CA001012570","1959-09-20",60.08,53.06,81.00,0.00,
"CA001012570","1959-09-21",66.02,46.04,0.00,0.00,
"CA001012570","1959-09-22",66.02,48.92,0.00,0.00,
"CA001012570","1959-09-23",64.04,39.02,61.00,0.00,
"CA001012570","1959-09-24",59.00,51.98,41.00,0.00,
"CA001012570","1959-09-25",60.08,46.04,127.00,0.00,
"CA001012570","1959-09-26",60.98,50.00,81.00,0.00,
"CA001012570","1959-09-27",62.06,35.06,8.00,0.00,
"CA001012570","1959-09-28",62.96,35.06,0.00,0.00,
"CA001012570","1959-09-29",59.00,46.04,0.00,0.00,
"CA001012570","1959-09-30",66.02,35.96,0.00,0.00,
"CA001012570","1959-10-01",64.04,39.92,0.00,0.00,
"CA001012570","1959-10-02",62.96,39.92,0.00,0.00,
"CA001012570","1959-10-03",62.06,50.00,0.00,0.00,
"CA001012570","1959-10-04",60.08,44.96,0.00,0.00,
"CA001012570","1959-10-05",64.04,37.04,0.00,0.00,
"CA001012570","1959-10-06",57.92,33.08,0.00,0.00,
"CA001012570","1959-10-07",51.98,33.08,94.00,0.00,
"CA001012570","1959-10-08",62.06,46.04,15.00,0.00,
"CA001012570","1959-10-09",55.94,35.06,0.00,0.00,